STARLINK-32442, 61729

Orbit data source: Space-Track

STARLINK-32442, 61729 is a payload satellite owned by SpaceX/Seattle (US) in LEO that was launched on Wed, 30 Oct 2024 UTC via an FALCON 9 launch vehicle from the Air Force Eastern Test Range (AFETR). Payload-class satellites include a variety of spacecraft equipped with specific instruments for various scientific and technological missions. These include communications satellites like Starlink; space stations such as the ISS; scientific satellites like the Hubble; Earth observation satellites from companies like Planet Labs, Umbra, and HawkEye 360; GPS; miniature CubeSats for education and research; and military/defense satellites.

Loading next visibility...
Identifier
61729, 2024-196Y
Orbit
LEO
Country
Flag of USUS
Related business
Manufacturer
SpaceX/Seattle
Mission
Operational Commercial Communications
Bus & Motor
STARLINK V2M, Unknown motor
Mass
730 kg wet, ~700 kg dry
Launch date (UTC)
2024-10-30 (2 years ago)
Launch vehicle
FALCON 9
Launch site
Air Force Eastern Test Range (AFETR)
Object type
Payload
Rocket body
Debris
Shape & HBR
Box + 2 Pan, 17.7 m
Radar Cross Section
33.884 m², Large (>1 m²)

Expand to show TLE details & history
Last TLE update: 15 hours ago

TLE from 15 hours ago
0 STARLINK-32442
1 61729U 24196Y   26221.42498811  .00000255  00000-0  18690-4 0  9997
2 61729  53.1595 110.2930 0001209  93.7107 266.4034 15.34401497100565
Epoch: 2026-08-09T10:11Z
TLE epoch observation values (Epoch: 2026-08-09T10:11:58.972Z)
Latitude
-0.00002°
Longitude
-0.6249°
Altitude
463.652 km
Speed
7.636 km/s
True Right ascension
07h 21m 10s
True Declination
0° 00' 00"
Sunlit
Object was in daylight at epoch
Visualization orbit readout
Latitude
Unknown
Longitude
Unknown
Altitude
Unknown
Speed
Unknown
Apparent Right ascension
Unknown
Apparent Declination
Unknown
Sunlit
N/A
Visualization observer readout
Local Sidereal Time
15:43:12
Azimuth
Unknown
Elevation
Unknown
Doppler factor
Unknown
Orbital elements
Apogee altitude
463.783 km
Perigee altitude
462.129 km
Semi-major axis
6,841.093 km
Eccentricity
0.00012
Inclination
53.1595°
RAAN
110.293°
Arg. of periapsis
93.7107°
True anomaly
266.38957°
Mean anomaly
266.4034°
Eccentric anomaly
266.39649°
Mean motion
3.83579 °/min
Orbital period
93.85 mins
BSTAR
0.00001869
Loading maneuver chart data...
Computing Atmospheric mass density...
Loading historical data...
Loading historical data...
Loading historical data...
Loading historical data...
Loading historical data...
Loading historical data...
Loading historical data...

Documentation

Showing up to 5 results
|